This is the latest recevied weather packets stored in our database for station/object N5DGC. If no packets are shown the sender has not sent any weather packets the latest 10 day(s).
| Time | Temp. | Humidity | Pressure | Rain* | Wind** | Luminosity | Snow |
|---|---|---|---|---|---|---|---|
| 1787798108 | 26.67° C | 33% | 1244.1 hPa | 0 mm | - | 0 W/m² | - |
| 1787797806 | 26.67° C | 32% | 1243.9 hPa | 0 mm | - | 0 W/m² | - |
| 1787797502 | 26.67° C | 31% | 1244.1 hPa | 0 mm | - | 0 W/m² | - |
| 1787797196 | 26.67° C | 31% | 1243.7 hPa | 0 mm | - | 0 W/m² | - |
| 1787796892 | 27.22° C | 30% | 1243.7 hPa | 0 mm | - | 0 W/m² | - |
| 1787796592 | 27.22° C | 29% | 1243.4 hPa | 0 mm | - | 0 W/m² | - |
| 1787796288 | 27.78° C | 29% | 1243.4 hPa | 0 mm | - | 0 W/m² | - |
| 1787795985 | 27.78° C | 28% | 1243.2 hPa | 0 mm | - | 0 W/m² | - |
| 1787795680 | 27.78° C | 28% | 1243.1 hPa | 0 mm | - | 0 W/m² | - |
| 1787795376 | 27.78° C | 28% | 1243.2 hPa | 0 mm | - | 1 W/m² | - |
| 1787795074 | 27.78° C | 28% | 1243.2 hPa | 0 mm | - | 2 W/m² | - |
| 1787794769 | 28.33° C | 28% | 1243.4 hPa | 0 mm | - | 4 W/m² | - |
| 1787794465 | 28.33° C | 27% | 1243.2 hPa | 0 mm | - | 7 W/m² | - |
| 1787794165 | 28.89° C | 26% | 1243.4 hPa | 0 mm | - | 9 W/m² | - |
| 1787793861 | 28.89° C | 25% | 1243.2 hPa | 0 mm | - | 12 W/m² | - |
| 1787793556 | 28.89° C | 25% | 1243.1 hPa | 0 mm | - | 16 W/m² | - |
| 1787793251 | 28.89° C | 25% | 1242.9 hPa | 0 mm | - | 29 W/m² | - |
| 1787792946 | 28.89° C | 25% | 1243 hPa | 0 mm | - | 40 W/m² | - |
| 1787792641 | 28.89° C | 25% | 1242.9 hPa | 0 mm | - | 41 W/m² | - |
| 1787792338 | 28.33° C | 26% | 1242.7 hPa | 0 mm | - | 42 W/m² | - |
| 1787792037 | 28.33° C | 27% | 1242.7 hPa | 0 mm | - | 45 W/m² | - |
| 1787791740 | 28.33° C | 28% | 1242.7 hPa | 0 mm | - | 44 W/m² | - |
| 1787791431 | 27.78° C | 28% | 1242.5 hPa | 0 mm | - | 32 W/m² | - |
| 1787791127 | 27.78° C | 29% | 1242.8 hPa | 0 mm | - | 25 W/m² | - |
| 1787790822 | 28.33° C | 28% | 1242.7 hPa | 0 mm | - | 29 W/m² | - |
* Rain latest hour (hover to see other rain measurements)
** Current wind speed in m/s (hover to see current wind gust speed)